This is the latest recevied weather packets stored in our database for station/object IW2NIA-3. If no packets are shown the sender has not sent any weather packets the latest 10 day(s).
| Time | Temp. | Humidity | Pressure | Rain* | Wind** | Luminosity | Snow |
|---|---|---|---|---|---|---|---|
| 1787537016 | 18.89° C | 84% | 1017.6 hPa | 0 mm | - | - | - |
| 1787536107 | 18.89° C | 84% | 1017.6 hPa | 0 mm | - | - | - |
| 1787535223 | 18.89° C | 84% | 1017.6 hPa | 0 mm | - | - | - |
| 1787534316 | 19.44° C | 83% | 1017.6 hPa | 0 mm | - | - | - |
| 1787533411 | 19.44° C | 83% | 1017.5 hPa | 0 mm | - | - | - |
| 1787532524 | 19.44° C | 83% | 1017.5 hPa | 0 mm | - | - | - |
| 1787531616 | 19.44° C | 82% | 1017.6 hPa | 0 mm | - | - | - |
| 1787530708 | 19.44° C | 82% | 1017.6 hPa | 0 mm | - | - | - |
| 1787529824 | 19.44° C | 82% | 1017.7 hPa | 0 mm | - | - | - |
| 1787528916 | 19.44° C | 82% | 1017.8 hPa | 0 mm | - | - | - |
| 1787528012 | 20° C | 81% | 1017.8 hPa | 0 mm | - | - | - |
| 1787527126 | 20° C | 82% | 1017.8 hPa | 0 mm | - | - | - |
| 1787526216 | 19.44° C | 81% | 1018 hPa | 0 mm | - | - | - |
| 1787525325 | 20° C | 81% | 1018 hPa | 0 mm | - | - | - |
| 1787524418 | 20° C | 81% | 1018 hPa | 0 mm | - | - | - |
| 1787523527 | 20° C | 81% | 1018 hPa | 0 mm | - | - | - |
| 1787522622 | 20° C | 81% | 1018 hPa | 0 mm | - | - | - |
| 1787521709 | 20° C | 80% | 1018 hPa | 0 mm | - | - | - |
| 1787520821 | 20.56° C | 79% | 1018 hPa | 0 mm | - | - | - |
| 1787519922 | 20.56° C | 79% | 1018 hPa | 0 mm | - | - | - |
| 1787519015 | 21.11° C | 79% | 1018.1 hPa | 0 mm | - | - | - |
| 1787518120 | 21.11° C | 80% | 1018.1 hPa | 0 mm | - | - | - |
| 1787517212 | 21.67° C | 79% | 1018 hPa | 0 mm | - | - | - |
| 1787516318 | 22.22° C | 78% | 1017.8 hPa | 0 mm | - | - | - |
| 1787515413 | 22.22° C | 77% | 1017.9 hPa | 0 mm | - | - | - |
* Rain latest hour (hover to see other rain measurements)
** Current wind speed in m/s (hover to see current wind gust speed)